Regional Weather Roundup
Issued by NWS Green Bay, WI

Home | Current Version | Previous Version | Graphics & Text | Print | Product List | Glossary Off
Versions: 1 2 3 4 5 6 7 8 9 10 11 12 13 14 15 16 17 18 19 20 21 22 23 24 25 26 27 28 29 30 31 32 33 34 35 36 37 38 39 40 41 42 43 44 45 46 47 48 49 50

272
ASUS43 KGRB 221911
RWRGRB

NORTH-CENTRAL AND NORTHEAST WISCONSIN REGIONAL WEATHER ROUNDUP
NATIONAL WEATHER SERVICE GREEN BAY WI
100 PM CST WED NOV 22 2017

WIZ005-009-010>012-018-019-222000-
NORTH CENTRAL WISCONSIN

CITY           SKY/WX    TMP DP  RH WIND       PRES   REMARKS
IRONWOOD       CLOUDY    23  12  62 SW10      30.14F
MANITOWISH WTR MOSUNNY   23  11  61 S10       30.13F
ARBOR VITAE    CLOUDY    25  13  60 SW8       30.14S
EAGLE RIVER    CLOUDY    23  11  59 SW9       30.13F
LAND O LAKES   MOSUNNY   24  12  61 SW8       30.14F
RHINELANDER    CLOUDY    24  11  57 S9        30.15F
PHILLIPS       CLOUDY    22  11  62 SW8       30.16F
ANTIGO         MOSUNNY   25  12  59 SW7       30.17F
TOMAHAWK       CLOUDY    24  10  55 S5        30.17F
MERRILL        MOSUNNY   26  12  55 SW7       30.19F
$$

WIZ013-073-222000-
NORTHEAST WISCONSIN

CITY           SKY/WX    TMP DP  RH WIND       PRES   REMARKS
IRON MOUNTAIN  CLOUDY    27  13  55 S9        30.16F
MARINETTE      CLOUDY    28  15  58 SW5       30.24F
OCONTO         PTSUNNY   29  13  50 SW6       30.25F
$$

WIZ017-030-035>037-045-222000-
CENTRAL WISCONSIN

CITY           SKY/WX    TMP DP  RH WIND       PRES   REMARKS
MEDFORD        CLOUDY    24  13  63 S10       30.18F
WAUSAU         MOSUNNY   25  12  58 SW9       30.19F
MOSINEE        PTSUNNY   25  12  58 SW8       30.22F
MARSHFIELD     CLOUDY    25  11  55 S12       30.20F
WISC RAPIDS    CLOUDY    26  14  60 SW8       30.25F
STEVENS POINT  MOSUNNY   25  10  54 SW6       30.22F
WAUPACA        CLOUDY    31  12  45 SW6       30.25F
SHAWANO        MOSUNNY   32  13  46 SW7       30.24F
CLINTONVILLE   SUNNY     28  10  47 SW8       30.24F
WAUTOMA        CLOUDY    28  13  53 SW8       30.25
$$

WIZ038-039-048-051-222000-
FOX VALLEY

CITY           SKY/WX    TMP DP  RH WIND       PRES   REMARKS
NWS GREEN BAY  SUNNY     30  15  53 W7        30.25F
APPLETON       PTSUNNY   28  10  47 W9        30.23
OSHKOSH        SUNNY     28  14  55 SW8       30.26F
FOND DU LAC    SUNNY     30  14  51 W9        30.26F
$$

WIZ022-050-052-222000-
EAST CENTRAL WISCONSIN

CITY           SKY/WX    TMP DP  RH WIND       PRES   REMARKS
EPHRAIM        CLOUDY    27  15  60 SW5       30.22F
WASHINGTON ISL CLOUDY    29  17  62 SW8       30.22F
STURGEON BAY   CLOUDY    26  16  65 W9        30.25F
MANITOWOC      SUNNY     30  16  56 SW8       30.26F
SHEBOYGAN      MIX PCPN  31  16  54 SW7       30.26F
$$

LMZ563-521-522-541>543-222000-
LAKESHORE

STATION/POSITION TIME  TEMP    WIND        PRES    VSBY  WAVE
                       AIR SEA DIR/SP/G                  HT/PER
                 (UTC) (F)     (DEG/KT/KT) (MB)    (MI)  (FT/S)
SHEBOYGAN LKSHOR 1900   29     230/  7/  9 1025.5F
KEWAUNEE LKSHORE 1842   29     270/  7/ 12 1023.8F
NORTHPORT PIER   1840   29     250/  2/  7 1023.7F
N MID LAKE BUOY  1850   31 47  230/ 10/ 14 1024.8F         1/ 3
SISTER BAY LKSHO 1805          220/ 10/ 12   N/A
MENOMINEE LKSHOR 1842   28     210/  7/ 12 1023.8F
$$




USA.gov is the U.S. government's official web portal to all federal, state and local government web resources and services.